Temperature
11 12 13 13 16 17 18 20 21 22 22 22 22 22 23 23 23 22 18 17 17 16 16 16 16 17 17 17 17 16 16 16 16 16 16 16 16 16 16 16 16 16 16 16 16 16 16 16 16
11 11 12 14 16 16 18 20 20 21 21 20 20 21 22 21 19 17 17 17 16 16 16 16 16 16 17 17 16 16 16 16 16 16 16 16 16 16 16 16 16 16 16 17 17 16 16 16 16
10 11 12 15 16 17 19 20 20 20 20 20 20 20 21 20 18 17 17 17 16 16 16 16 16 16 17 17 16 16 16 16 16 16 16 16 16 16 16 16 16 16 17 17 17 16 16 16 16
10 11 12 14 15 18 19 20 20 20 19 19 20 20 19 18 17 17 17 16 16 16 15 16 16 16 16 16 16 16 16 16 16 16 16 16 16 16 16 17 17 17 17 17 16 16 16 16 16
10 11 13 13 15 18 19 19 19 19 19 19 19 20 18 17 16 16 16 16 16 15 15 16 16 16 16 16 16 16 16 16 16 16 16 16 16 16 17 17 17 17 17 16 16 16 16 16 16
10 11 12 13 15 17 18 18 18 18 19 18 19 19 18 16 16 16 16 16 16 15 15 16 16 16 16 16 16 16 16 16 16 16 16 16 17 17 17 17 16 16 16 16 16 16 16 16 16
10 11 12 14 15 16 17 17 17 17 18 18 18 18 17 16 16 16 16 15 15 15 15 15 15 16 16 16 16 16 16 16 16 16 16 16 17 17 16 16 16 16 16 16 16 16 16 16 16
10 11 12 13 14 15 16 16 16 16 17 17 17 18 17 16 16 15 15 15 15 15 15 15 15 15 15 16 16 16 16 16 16 16 16 16 16 16 16 16 16 16 16 16 16 16 16 16 16
9 10 12 13 14 15 15 16 15 15 16 16 16 17 17 16 15 15 15 15 15 15 15 15 15 15 15 15 15 15 15 16 16 16 16 16 16 16 16 16 16 16 16 16 16 16 16 16 15
9 10 12 14 15 15 15 15 15 15 15 15 15 15 16 15 15 15 15 15 15 15 15 15 15 15 15 15 15 15 15 15 15 15 16 16 15 15 16 16 16 16 16 16 16 16 15 15 15
10 11 12 13 13 13 14 14 14 15 15 15 15 15 15 15 14 15 15 15 15 15 15 15 15 15 15 15 15 15 15 15 15 15 15 15 15 16 16 16 16 16 16 15 15 15 15 14 14
10 11 11 12 12 12 13 13 13 14 14 14 14 14 14 14 14 15 15 15 15 14 15 15 15 15 15 15 15 15 15 15 15 15 15 15 15 15 15 15 15 15 15 15 15 15 14 14 14
10 11 11 11 11 12 12 13 13 13 13 13 13 13 14 14 14 14 14 14 14 14 14 15 15 15 15 15 15 15 15 15 15 16 15 15 15 15 15 15 15 15 15 15 15 14 14 14 14
10 10 10 11 11 12 12 12 12 12 12 13 13 13 13 14 14 14 14 14 14 14 14 14 14 15 15 15 15 15 15 15 15 16 16 15 15 15 15 15 15 15 15 15 15 14 14 14 13
9 10 11 11 11 12 12 12 13 12 12 13 13 13 13 14 14 14 14 14 14 14 14 14 14 14 15 15 15 15 15 15 15 15 15 15 15 15 15 15 15 15 15 14 14 14 14 13 13
10 10 11 11 12 12 12 12 13 12 12 13 13 13 13 13 13 14 14 14 14 14 14 14 14 14 14 14 15 15 15 15 15 15 15 15 15 15 15 15 15 15 14 14 14 14 14 13 13
10 10 10 11 11 12 12 12 13 12 12 13 13 13 13 13 13 13 14 14 14 14 14 14 14 14 14 14 14 14 15 15 15 15 15 15 15 15 15 15 15 14 14 14 14 14 13 13 13
10 10 10 11 11 11 12 12 13 12 12 13 13 13 13 13 13 13 13 14 14 14 14 14 14 14 14 14 14 14 14 14 15 15 15 15 15 15 14 14 14 14 14 14 14 13 13 13 13
10 10 11 11 11 11 12 12 13 13 13 13 13 13 13 13 13 13 13 13 14 14 14 14 14 14 14 14 14 14 14 14 14 15 15 14 15 15 14 14 14 14 14 14 13 13 13 13 13
10 10 10 10 11 11 12 12 13 13 13 12 13 13 12 12 13 13 13 13 13 13 13 13 14 14 13 13 14 14 14 14 14 14 14 14 14 14 14 14 14 14 13 13 13 13 13 13 13
10 10 11 10 10 11 12 13 13 13 12 12 12 12 12 12 12 13 13 13 13 13 13 13 13 14 13 13 13 13 13 13 14 14 14 14 14 14 14 14 14 13 13 13 13 13 13 13 12
10 10 10 10 11 11 12 12 13 13 13 13 13 12 12 12 12 12 12 13 13 13 13 13 13 13 13 13 13 13 13 13 13 13 14 14 14 14 14 14 13 13 13 13 13 13 13 12 12
10 10 10 10 11 11 12 12 13 12 12 12 12 12 11 11 11 12 12 12 12 13 13 13 13 13 13 13 13 13 13 13 13 13 13 13 13 13 13 13 13 13 13 13 13 13 12 12 12
9 10 10 10 11 11 11 12 12 12 11 11 12 11 10 10 11 11 11 12 12 12 13 13 13 13 13 13 13 13 12 12 12 12 13 13 13 13 13 13 13 13 13 13 12 12 12 12 12
10 10 10 11 11 12 10 11 12 11 11 11 11 10 10 10 10 10 11 11 12 12 12 12 12 13 13 13 13 12 12 12 12 12 12 12 12 12 13 13 13 13 12 12 12 12 12 12 11
10 10 11 11 12 12 11 11 12 11 10 10 10 9 9 9 9 10 10 11 11 11 12 12 12 12 12 12 12 12 12 12 12 12 12 12 12 12 12 12 12 12 12 12 11 11 11 11 11
10 10 10 10 10 11 12 11 11 11 10 10 10 9 9 9 9 9 10 10 10 11 11 11 11 12 12 12 12 12 12 12 12 12 12 12 12 12 12 12 12 12 11 11 11 11 11 11 11
9 9 10 9 10 11 11 11 12 10 10 10 10 9 9 8 8 9 9 9 10 10 10 11 11 11 11 11 11 11 11 11 11 11 11 11 11 11 11 11 11 11 11 11 11 10 10 10 10
9 9 9 10 10 11 11 12 11 10 10 10 9 8 8 8 8 8 8 9 9 9 10 10 10 10 11 11 11 11 11 11 11 11 11 11 11 11 11 11 10 10 10 10 10 10 10 10 10
9 9 9 9 9 9 10 11 10 10 9 9 8 8 7 7 7 8 8 8 8 9 9 9 9 9 10 10 10 10 10 10 10 10 10 10 10 10 10 10 10 10 10 10 10 9 9 9 9
Wind_Speed
8 5 4 4 7 10 24 22 18 16 15 10 7 7 8 8 5 1 4 12 16 19 22 22 21 19 18 17 16 15 15 16 17 18 18 18 18 18 18 18 18 18 17 17 17 16 15 15 15
6 3 4 6 12 18 22 21 18 16 12 8 7 7 7 5 0 4 7 13 17 19 21 21 21 20 18 17 16 16 15 16 16 17 18 18 18 18 18 18 18 17 17 16 16 15 14 14 14
5 4 6 7 17 24 23 17 15 13 10 9 8 7 6 4 4 6 8 16 18 18 19 20 21 20 19 17 17 16 16 16 16 17 18 18 18 18 18 18 17 17 16 16 15 14 14 13 13
3 4 5 12 24 26 21 16 12 12 10 8 8 6 4 2 5 7 14 18 19 18 19 21 21 20 18 17 16 16 16 16 16 16 17 18 18 18 18 17 17 16 16 15 14 13 13 12 12
3 5 10 17 25 23 19 14 11 13 13 11 9 8 5 3 5 11 16 18 18 17 18 21 20 20 19 17 16 16 15 15 16 16 17 17 17 17 17 17 16 16 15 14 13 12 12 11 11
5 5 11 19 24 21 18 15 12 13 13 12 10 9 6 4 8 13 16 16 17 17 17 20 20 19 18 17 16 15 15 15 16 16 16 16 17 17 17 16 15 15 14 13 12 11 11 10 10
6 8 15 20 21 20 17 14 14 13 14 13 10 9 6 7 9 13 15 15 15 16 16 17 19 18 17 16 15 15 14 14 15 15 15 16 16 16 16 15 15 14 13 12 11 11 10 9 8
5 6 13 17 19 20 16 13 13 14 14 10 9 10 8 8 11 12 14 14 14 15 15 15 17 17 17 16 15 15 14 14 14 14 14 15 14 15 14 14 14 13 12 11 10 10 9 8 7
4 7 13 17 17 15 12 13 11 10 11 9 9 9 6 10 12 13 13 13 13 14 14 14 15 15 15 15 15 15 14 14 14 14 15 15 13 13 13 12 13 12 11 10 9 8 8 7 7
6 9 14 11 12 11 12 12 11 9 12 10 8 7 8 11 13 15 15 15 15 15 14 13 14 14 14 13 14 13 13 14 13 13 14 12 11 10 10 12 11 11 10 9 8 8 7 7 6
6 10 10 8 8 9 10 9 8 11 12 10 10 10 11 12 14 15 15 15 14 15 14 13 13 13 13 11 11 10 10 11 11 13 13 11 10 9 9 10 10 10 10 9 8 8 7 6 4
6 8 8 7 6 8 10 8 7 8 9 7 7 7 10 12 14 14 14 14 13 13 15 14 13 13 13 11 10 10 9 9 9 11 12 10 8 8 8 8 9 9 8 8 8 6 6 6 6
7 6 5 5 5 7 8 9 7 8 8 5 4 6 11 11 12 11 11 12 13 13 13 14 13 13 12 11 9 9 9 9 10 10 11 11 8 7 8 7 8 8 7 8 7 7 6 6 5
4 5 5 5 5 6 8 8 7 8 7 5 6 8 10 11 11 11 11 12 13 14 14 12 14 13 12 10 9 9 9 10 10 10 11 11 9 8 7 7 7 7 8 7 7 7 6 5 5
4 4 3 4 4 4 5 7 9 7 6 6 7 7 9 10 11 12 11 10 11 12 12 13 12 12 13 12 11 9 9 10 9 10 12 12 11 10 8 7 7 7 8 8 7 7 6 5 5
3 4 3 2 3 4 7 8 6 4 5 6 6 6 7 8 9 10 10 9 9 9 10 11 10 11 12 11 11 9 10 10 9 10 11 12 12 11 9 7 7 8 7 7 6 6 6 6 6
3 4 4 2 2 3 5 6 4 4 6 6 5 6 5 6 8 7 8 7 7 8 8 8 9 11 11 10 9 9 9 9 9 9 10 11 12 12 10 7 7 8 7 7 6 7 6 6 5
5 4 4 3 1 3 5 5 4 4 5 5 5 5 4 5 6 5 4 4 5 6 5 6 6 8 9 8 7 7 7 8 8 8 10 12 11 12 10 8 9 8 7 7 7 8 6 6 5
4 5 4 2 1 2 4 5 5 4 5 5 4 3 3 4 3 3 4 4 4 5 5 6 7 7 6 6 7 7 7 7 7 7 10 12 12 12 11 8 8 8 8 9 9 8 8 6 5
4 4 2 0 1 2 3 4 4 3 4 3 3 3 3 2 3 3 4 5 5 5 6 6 7 7 8 7 7 6 6 6 7 7 9 12 12 12 10 10 8 8 8 9 9 8 6 5 5
2 2 2 1 1 1 2 3 2 0 1 2 2 1 1 2 3 3 4 4 4 4 5 5 6 7 8 8 6 5 5 4 6 8 8 9 11 12 11 11 9 8 8 8 9 9 9 7 6
1 1 2 2 1 0 2 2 0 1 1 1 1 1 1 0 1 2 2 2 2 3 3 4 5 6 7 8 8 9 8 8 8 8 7 8 10 10 10 10 10 9 8 8 8 8 8 8 6
1 1 1 1 1 0 1 2 0 2 2 3 4 4 3 2 1 2 2 1 1 1 2 3 4 5 7 7 9 10 9 8 6 6 8 8 7 8 9 10 9 9 8 9 9 8 9 7 7
3 3 2 1 1 1 1 1 1 2 2 3 5 6 5 4 3 2 2 1 0 1 1 2 3 4 6 7 8 10 11 10 9 9 8 7 6 6 9 9 9 8 8 9 9 9 9 8 8
1 1 1 1 1 0 1 1 1 4 4 4 5 6 6 6 5 4 4 3 2 2 2 1 2 4 5 6 8 9 10 11 11 11 10 9 7 7 9 9 9 8 8 8 8 8 8 8 8
1 1 1 0 1 1 0 1 2 4 4 5 6 6 7 7 7 6 6 4 3 3 2 2 3 4 5 5 6 7 9 8 8 10 9 10 9 8 9 9 8 9 9 8 8 7 7 6 7
2 1 2 1 1 1 1 0 1 4 5 7 8 9 9 8 8 7 6 6 5 4 3 3 3 3 4 5 5 6 7 7 7 7 8 8 7 7 9 9 9 9 8 8 8 6 6 6 6
2 2 1 1 1 1 1 1 1 2 4 6 8 9 9 8 8 7 7 7 6 5 5 4 3 3 3 4 4 4 5 5 5 6 7 7 8 8 9 9 9 9 8 8 7 6 5 6 5
2 2 1 1 1 1 1 0 2 2 2 4 5 7 8 8 8 7 7 7 7 6 5 5 4 4 3 3 3 3 3 3 4 5 6 7 7 8 9 9 9 8 8 8 8 7 7 7 6
2 2 2 2 1 1 1 1 3 2 2 3 4 6 7 8 7 7 7 7 7 7 6 6 5 4 4 3 3 3 3 3 4 5 6 6 7 7 8 9 8 8 8 8 8 8 8 7 7
Wind_Direction
295 283 237 198 206 222 230 226 224 219 217 215 210 207 212 206 209 172 103 157 154 154 153 153 153 152 149 147 146 145 146 147 147 146 143 140 137 134 131 129 126 123 120 116 113 110 106 104 101
284 255 212 205 215 220 225 220 219 217 212 202 203 208 208 205 153 105 139 154 155 154 154 156 152 151 149 148 148 147 147 148 147 145 143 141 138 135 133 130 127 124 121 118 115 113 110 108 107
265 226 213 207 220 222 222 211 213 212 210 208 206 215 222 198 156 147 149 154 154 154 155 151 153 151 150 149 150 149 149 149 146 145 143 141 139 137 135 130 127 125 123 121 119 116 113 110 110
236 197 218 222 224 225 228 222 214 209 208 217 213 201 201 194 156 149 150 156 155 155 155 152 154 152 150 150 152 152 153 152 149 147 143 141 140 139 135 132 130 128 127 125 123 118 114 112 112
229 208 211 222 228 229 229 230 225 218 213 213 214 217 206 163 147 147 155 158 157 156 155 155 156 153 152 153 154 154 155 154 152 149 146 144 142 140 137 135 134 133 131 129 127 123 119 116 114
211 213 217 220 224 228 226 227 230 229 223 218 215 222 226 165 152 154 157 161 159 157 156 156 157 155 154 155 156 156 153 153 153 152 149 147 145 143 141 139 139 138 137 134 130 128 125 122 119
220 216 225 224 223 225 226 224 228 231 228 219 216 223 214 180 161 160 160 161 161 159 159 159 162 160 157 156 158 157 155 153 152 152 150 148 147 146 145 145 146 144 142 138 135 132 129 126 123
232 218 225 224 223 224 224 224 227 230 234 234 227 217 201 180 164 163 161 163 164 164 165 163 165 166 165 163 159 157 155 153 151 148 145 143 146 148 149 152 150 149 146 143 140 138 134 129 128
218 222 225 222 222 224 223 224 227 232 233 237 234 235 203 166 163 165 163 164 169 170 171 169 169 170 168 166 160 160 156 153 151 150 146 152 159 157 159 156 150 151 151 150 148 145 141 140 139
209 222 226 229 229 222 222 226 226 225 223 230 226 224 183 167 174 176 175 174 177 177 175 175 173 172 170 166 167 169 167 165 170 165 165 170 167 164 162 150 156 156 156 157 155 153 160 180 169
215 226 229 237 242 226 224 232 233 227 224 228 225 212 180 178 186 187 184 181 182 182 177 179 177 174 173 171 172 172 171 173 177 174 175 173 168 164 167 167 167 170 172 175 166 179 189 195 187
226 234 238 241 243 228 223 227 230 233 238 249 244 218 191 188 193 194 188 186 182 189 184 180 181 179 178 176 177 176 175 177 179 180 181 178 176 177 177 181 180 182 187 187 191 199 194 199 199
232 236 238 246 240 235 224 225 232 247 268 259 237 213 203 196 202 205 197 192 186 190 190 184 182 185 181 178 180 183 183 185 184 183 188 188 186 186 184 188 188 194 195 195 199 204 201 206 209
242 246 244 248 234 231 220 232 234 251 271 245 223 215 206 201 205 209 206 199 193 191 191 187 187 188 185 183 184 187 188 187 187 188 193 195 197 195 194 196 198 201 203 205 207 210 209 214 216
259 248 246 250 238 220 201 221 229 254 261 238 223 216 211 210 210 209 208 206 199 193 189 187 188 189 191 191 190 189 191 191 193 194 197 199 200 199 201 204 205 207 208 209 213 213 218 219 221
229 220 213 222 224 216 204 216 228 241 224 232 230 222 221 218 218 204 203 207 205 197 190 188 188 191 197 197 193 192 193 194 196 197 198 202 204 204 205 208 211 210 210 211 212 213 216 217 222
202 201 207 232 229 208 209 217 230 231 214 221 226 228 227 223 222 215 205 203 200 198 196 189 194 196 199 200 200 196 195 197 198 199 202 204 207 207 209 212 212 208 210 214 212 215 217 218 221
186 192 198 201 225 201 211 232 240 231 215 223 231 230 229 230 230 218 205 208 200 195 193 192 196 202 201 197 199 197 197 200 200 203 207 205 206 207 210 212 213 208 209 214 213 213 214 222 220
186 198 200 245 308 216 218 233 249 249 233 233 236 235 231 235 235 209 193 188 188 187 188 192 193 198 202 200 202 202 203 203 204 207 211 208 206 205 207 210 211 210 215 216 215 214 214 214 207
172 178 176 134 2 270 229 264 268 262 247 252 249 237 226 226 207 204 192 179 190 192 194 202 200 199 204 209 208 212 208 209 210 210 213 210 207 205 205 207 208 210 215 216 213 210 213 207 199
152 188 164 161 327 348 253 254 235 219 218 225 231 233 230 216 206 185 178 177 187 197 195 210 210 212 215 215 209 207 206 209 211 214 215 214 210 207 205 207 209 210 213 216 212 210 210 208 207
158 194 163 175 198 49 283 229 321 30 106 124 69 52 1 174 179 158 132 130 167 211 200 210 215 218 218 213 213 211 214 216 219 216 215 211 207 209 208 209 210 209 210 213 210 208 211 212 208
126 122 144 177 163 192 291 227 97 57 83 35 30 30 34 51 100 115 113 127 150 211 210 216 226 223 221 215 218 218 224 224 220 218 219 214 206 208 207 207 209 209 207 208 205 202 205 211 213
140 126 117 171 194 195 339 238 85 50 17 8 22 24 32 38 50 70 79 83 9 352 284 246 241 240 231 224 229 224 222 221 217 219 222 221 215 212 209 205 205 206 204 204 203 201 202 204 211
170 181 165 162 168 124 35 254 18 28 26 22 22 27 33 36 38 35 38 28 359 348 341 273 241 243 236 228 228 232 229 224 220 219 218 217 217 214 210 203 201 201 199 196 195 197 199 201 206
177 282 297 215 151 111 112 248 57 41 44 50 51 47 38 34 30 25 21 17 3 347 329 293 254 243 238 234 235 235 236 232 228 224 222 219 217 211 204 202 199 196 192 188 189 194 192 192 197
157 116 12 68 78 237 209 211 88 63 50 42 40 37 30 25 22 18 14 13 6 347 331 310 276 262 254 245 240 236 235 231 227 226 226 223 215 206 200 195 192 188 183 180 178 185 182 180 187
31 120 166 170 201 224 244 232 192 72 37 27 26 24 18 15 17 15 10 5 1 353 343 340 326 293 269 259 257 252 246 237 222 219 218 217 208 199 194 189 186 182 176 172 171 172 170 173 178
129 143 141 140 305 259 253 118 62 101 44 22 15 10 6 8 7 7 4 2 359 356 356 356 349 335 315 290 275 263 250 239 226 221 219 213 203 194 190 184 180 178 177 173 170 170 171 177 173
249 202 191 206 194 234 269 267 89 71 34 20 7 0 0 2 2 3 4 3 1 358 358 355 349 340 329 315 294 277 255 232 227 223 215 204 197 189 183 177 174 173 175 175 170 168 174 177 175
Height
1511 1514 1516 1520 1519 1513 1500 1491 1492 1494 1497 1500 1501 1501 1499 1500 1502 1507 1507 1507 1509 1513 1516 1519 1523 1525 1527 1529 1531 1533 1534 1536 1538 1540 1542 1544 1545 1547 1548 1549 1550 1551 1552 1553 1553 1554 1555 1555 1555
1510 1512 1516 1516 1509 1504 1492 1489 1493 1493 1497 1500 1501 1501 1500 1501 1504 1504 1504 1506 1510 1513 1516 1519 1522 1525 1527 1529 1531 1533 1535 1537 1539 1541 1543 1544 1546 1548 1549 1551 1552 1553 1554 1554 1555 1556 1556 1557 1557
1508 1510 1513 1508 1500 1491 1486 1487 1491 1495 1497 1499 1499 1500 1500 1501 1503 1503 1504 1506 1510 1514 1517 1519 1522 1525 1527 1530 1532 1533 1535 1537 1539 1542 1543 1545 1547 1549 1550 1552 1553 1554 1555 1556 1557 1557 1558 1559 1559
1507 1509 1509 1503 1492 1484 1484 1487 1491 1494 1497 1498 1498 1499 1500 1502 1502 1502 1504 1507 1511 1514 1517 1520 1523 1525 1528 1530 1532 1534 1536 1538 1540 1542 1544 1546 1548 1550 1551 1553 1554 1555 1556 1557 1558 1559 1560 1560 1561
1504 1505 1502 1496 1488 1484 1486 1489 1492 1493 1494 1496 1497 1497 1498 1500 1500 1501 1504 1508 1511 1514 1517 1520 1523 1525 1528 1530 1532 1534 1537 1539 1541 1543 1545 1547 1549 1550 1552 1554 1555 1556 1557 1558 1559 1560 1561 1561 1562
1503 1500 1496 1490 1485 1484 1486 1490 1492 1493 1493 1494 1495 1496 1498 1499 1500 1501 1505 1508 1512 1514 1517 1520 1523 1526 1528 1531 1533 1535 1537 1539 1541 1543 1545 1547 1549 1551 1553 1554 1556 1557 1558 1559 1560 1561 1562 1562 1563
1500 1497 1490 1486 1484 1484 1486 1490 1492 1492 1492 1493 1495 1495 1496 1498 1500 1502 1505 1508 1511 1514 1517 1520 1523 1526 1528 1531 1533 1535 1538 1540 1542 1544 1546 1548 1550 1552 1553 1555 1557 1558 1559 1560 1561 1562 1563 1563 1564
1497 1496 1489 1485 1483 1483 1486 1489 1490 1492 1491 1493 1494 1493 1494 1498 1500 1502 1505 1508 1511 1514 1517 1519 1522 1525 1528 1531 1533 1536 1538 1540 1542 1544 1546 1548 1550 1552 1554 1556 1557 1558 1559 1561 1561 1562 1563 1564 1564
1496 1495 1487 1483 1482 1482 1485 1487 1489 1490 1491 1491 1491 1492 1493 1496 1498 1501 1504 1506 1510 1513 1516 1519 1522 1525 1528 1530 1533 1535 1538 1540 1542 1544 1546 1548 1550 1552 1554 1556 1557 1558 1560 1561 1562 1563 1563 1564 1564
1494 1490 1484 1483 1482 1482 1485 1486 1488 1489 1489 1490 1490 1490 1492 1494 1497 1499 1501 1503 1507 1510 1514 1517 1520 1523 1527 1529 1532 1535 1537 1539 1542 1544 1546 1548 1550 1552 1554 1555 1557 1558 1559 1560 1561 1562 1563 1564 1564
1489 1485 1483 1484 1484 1484 1485 1486 1487 1487 1487 1488 1488 1489 1490 1492 1494 1497 1500 1502 1505 1508 1512 1515 1519 1522 1525 1528 1531 1534 1536 1538 1541 1543 1545 1547 1549 1551 1553 1554 1556 1557 1559 1560 1561 1561 1562 1563 1563
1487 1485 1484 1484 1484 1484 1484 1485 1486 1486 1486 1487 1487 1487 1489 1490 1493 1495 1498 1501 1504 1506 1510 1513 1517 1520 1523 1526 1529 1532 1534 1537 1539 1541 1543 1546 1547 1550 1552 1553 1555 1556 1558 1559 1560 1560 1561 1562 1562
1486 1484 1483 1483 1483 1483 1484 1484 1484 1486 1485 1485 1486 1486 1487 1489 1492 1494 1497 1499 1501 1504 1507 1511 1514 1518 1521 1524 1527 1530 1532 1535 1537 1539 1542 1544 1546 1548 1550 1552 1553 1555 1556 1557 1558 1559 1560 1560 1561
1484 1483 1482 1482 1481 1482 1482 1482 1483 1483 1483 1483 1484 1485 1486 1488 1490 1492 1494 1497 1499 1501 1505 1509 1512 1515 1519 1522 1525 1528 1531 1533 1535 1537 1540 1542 1544 1546 1548 1550 1551 1553 1554 1555 1556 1557 1558 1559 1559
1484 1483 1480 1480 1480 1480 1482 1481 1480 1481 1482 1482 1483 1483 1484 1486 1488 1490 1492 1495 1498 1500 1502 1506 1509 1513 1517 1520 1523 1526 1529 1531 1533 1535 1537 1539 1542 1544 1546 1548 1549 1551 1552 1553 1554 1555 1556 1556 1557
1483 1481 1479 1478 1478 1479 1482 1478 1478 1479 1481 1481 1481 1481 1483 1484 1486 1487 1491 1494 1496 1498 1500 1503 1507 1510 1514 1518 1521 1523 1526 1529 1531 1533 1535 1537 1539 1541 1543 1545 1546 1548 1549 1550 1551 1552 1553 1554 1554
1480 1479 1477 1477 1477 1477 1478 1476 1477 1478 1478 1479 1479 1480 1481 1482 1484 1486 1488 1491 1493 1495 1498 1500 1504 1507 1511 1514 1518 1520 1523 1525 1528 1530 1532 1534 1536 1538 1540 1542 1543 1545 1546 1547 1548 1549 1550 1551 1551
1477 1476 1476 1476 1476 1476 1476 1475 1474 1476 1476 1476 1477 1477 1479 1480 1482 1484 1486 1488 1491 1493 1495 1498 1501 1505 1508 1510 1514 1517 1519 1521 1524 1526 1528 1530 1533 1535 1537 1538 1540 1541 1542 1544 1545 1546 1546 1547 1548
1475 1475 1474 1475 1476 1476 1473 1472 1471 1472 1473 1473 1474 1475 1477 1478 1480 1482 1484 1486 1489 1491 1494 1496 1499 1502 1505 1507 1510 1513 1515 1517 1520 1522 1524 1526 1528 1530 1532 1534 1535 1537 1538 1540 1541 1542 1543 1543 1544
1476 1475 1475 1476 1476 1475 1472 1470 1469 1470 1471 1472 1473 1474 1476 1477 1479 1480 1482 1484 1486 1489 1491 1494 1496 1499 1501 1504 1507 1509 1511 1514 1516 1518 1520 1522 1524 1526 1527 1529 1531 1533 1534 1535 1536 1537 1538 1539 1540
1477 1476 1475 1476 1476 1474 1473 1469 1467 1469 1471 1472 1473 1474 1475 1475 1477 1478 1480 1482 1484 1486 1488 1491 1493 1495 1497 1500 1502 1505 1507 1509 1511 1513 1515 1517 1519 1520 1522 1524 1526 1528 1529 1530 1531 1532 1534 1534 1536
1478 1477 1477 1477 1475 1475 1474 1470 1465 1468 1469 1470 1471 1473 1474 1475 1476 1477 1479 1480 1481 1484 1486 1487 1489 1492 1494 1496 1497 1500 1501 1503 1506 1509 1510 1511 1513 1515 1517 1519 1520 1522 1523 1525 1526 1528 1529 1530 1531
1479 1479 1478 1478 1476 1475 1472 1469 1467 1469 1469 1470 1471 1473 1473 1474 1475 1476 1477 1479 1480 1482 1483 1484 1486 1488 1490 1491 1493 1494 1496 1498 1501 1503 1504 1505 1507 1509 1511 1513 1515 1516 1518 1519 1521 1522 1523 1525 1526
1481 1480 1479 1478 1475 1475 1474 1471 1469 1471 1472 1473 1473 1473 1473 1473 1474 1475 1476 1477 1479 1480 1480 1481 1483 1485 1486 1487 1489 1489 1491 1493 1495 1497 1498 1500 1501 1502 1504 1507 1508 1510 1512 1514 1515 1517 1518 1519 1521
1480 1479 1477 1476 1474 1472 1477 1474 1472 1474 1476 1476 1475 1474 1474 1474 1474 1474 1475 1475 1476 1476 1477 1479 1480 1481 1482 1483 1485 1485 1486 1487 1489 1490 1492 1494 1495 1496 1499 1500 1502 1504 1506 1508 1510 1511 1513 1514 1515
1480 1479 1478 1475 1472 1471 1476 1473 1474 1477 1478 1477 1476 1475 1475 1474 1473 1473 1473 1474 1474 1475 1475 1476 1477 1477 1478 1479 1480 1481 1482 1483 1484 1485 1486 1488 1489 1490 1492 1494 1496 1498 1501 1502 1504 1506 1507 1509 1510
1480 1480 1482 1480 1481 1477 1471 1473 1474 1477 1477 1477 1476 1476 1475 1475 1474 1474 1473 1473 1473 1473 1473 1473 1473 1474 1474 1475 1476 1476 1477 1478 1479 1480 1481 1482 1483 1484 1486 1489 1491 1493 1495 1496 1498 1500 1502 1503 1504
1484 1483 1482 1483 1480 1474 1471 1471 1471 1476 1477 1477 1477 1477 1477 1476 1474 1474 1473 1472 1471 1471 1470 1470 1470 1470 1471 1471 1472 1472 1472 1473 1474 1475 1476 1476 1477 1479 1481 1483 1485 1487 1489 1491 1493 1495 1496 1498 1499
1485 1485 1483 1482 1480 1476 1473 1472 1475 1477 1479 1479 1479 1479 1478 1476 1475 1473 1472 1471 1470 1469 1468 1467 1467 1467 1467 1467 1467 1468 1468 1468 1469 1470 1470 1471 1472 1473 1475 1477 1479 1482 1484 1486 1488 1490 1491 1493 1494
1486 1484 1483 1483 1486 1482 1477 1477 1478 1479 1481 1481 1481 1480 1478 1477 1475 1473 1472 1471 1469 1467 1466 1465 1465 1464 1464 1464 1464 1463 1463 1464 1464 1465 1466 1466 1467 1468 1470 1472 1474 1476 1478 1480 1482 1484 1486 1488 1489